SV2BZQ-2 Weather Reports


Display with metric or nautical units.
time (UTC)temp
F
wind
direction
speed
MPH
gust
MPH
rain 1hr
in
rain 24hr
in
rain mn
in
humidity
%
barometer
mb
20260507112735 66 318 4.0 7.0 0.00 0.00 0.00 79 1017.5
20260507112611 66 322 3.0 7.0 0.00 0.00 0.00 79 1017.4
20260507112533 66 282 3.0 7.0 0.00 0.00 0.00 79 1017.4
20260507112337 66 327 3.0 6.0 0.00 0.00 0.00 79 1017.5
20260507112329 79 203 5.0 11.0 0.00 0.00 0.00 54 1013.2
20260507112149 66 327 3.0 6.0 0.00 0.00 0.00 79 1017.4
20260507112114 66 340 3.0 6.0 0.00 0.00 0.00 79 1017.4
20260507111935 67 333 3.0 5.0 0.00 0.00 0.00 79 1017.5
20260507111732 67 304 3.0 5.0 0.00 0.00 0.00 79 1017.5
20260507111607 67 329 3.0 5.0 0.00 0.00 0.00 80 1017.5
20260507111532 67 331 3.0 5.0 0.00 0.00 0.00 80 1017.5
20260507111325 67 310 3.0 5.0 0.00 0.00 0.00 80 1017.5
20260507111218 80 205 3.0 9.0 0.00 0.00 0.00 45 1013.7
20260507111141 67 338 3.0 5.0 0.00 0.00 0.00 79 1017.5
20260507111114 67 337 3.0 5.0 0.00 0.00 0.00 79 1017.5
20260507111021 80 113 4.0 9.0 0.00 0.00 0.00 45 1013.8
20260507110950 79 195 4.0 9.0 0.00 0.00 0.00 46 1013.8
20260507110925 67 334 3.0 5.0 0.00 0.00 0.00 79 1017.5
20260507110731 67 355 2.0 5.0 0.00 0.00 0.00 80 1017.5
20260507110616 67 268 2.0 4.0 0.00 0.00 0.00 79 1017.5
20260507110529 67 329 2.0 4.0 0.00 0.00 0.00 79 1017.5
20260507110342 67 291 2.0 4.0 0.00 0.00 0.00 79 1017.4
20260507110157 67 342 2.0 4.0 0.00 0.00 0.00 79 1017.5
20260507110141 67 295 2.0 4.0 0.00 0.00 0.00 79 1017.5
20260507110022 67 322 2.0 4.0 0.00 0.00 0.00 78 1017.4
20260507105906 67 321 2.0 4.0 0.00 0.00 0.00 78 1017.4
20260507105817 68 273 2.0 4.0 0.00 0.00 0.00 78 1017.3
20260507105741 68 314 2.0 4.0 0.00 0.00 0.00 77 1017.3
20260507105605 68 300 2.0 5.0 0.00 0.00 0.00 77 1017.3
20260507105432 68 296 2.0 6.0 0.00 0.00 0.00 77 1017.3
20260507105422 68 332 3.0 6.0 0.00 0.00 0.00 77 1017.3
20260507105310 68 332 3.0 6.0 0.00 0.00 0.00 76 1017.3
20260507105200 68 332 3.0 6.0 0.00 0.00 0.00 76 1017.3
20260507105122 68 332 3.0 6.0 0.00 0.00 0.00 76 1017.3
20260507105039 68 279 3.0 6.0 0.00 0.00 0.00 76 1017.3
20260507104901 68 323 3.0 6.0 0.00 0.00 0.00 76 1017.2
20260507104723 68 307 3.0 5.0 0.00 0.00 0.00 76 1017.2
20260507104712 68 321 3.0 5.0 0.00 0.00 0.00 76 1017.2
20260507104554 68 319 3.0 5.0 0.00 0.00 0.00 75 1017.2
20260507104435 69 5 3.0 5.0 0.00 0.00 0.00 75 1017.2
20260507104039 69 324 3.0 5.0 0.00 0.00 0.00 75 1017.2
20260507103850 69 325 3.0 5.0 0.00 0.00 0.00 75 1017.3
20260507103727 69 322 3.0 6.0 0.00 0.00 0.00 75 1017.3
20260507103720 69 310 3.0 6.0 0.00 0.00 0.00 75 1017.3
20260507103606 69 335 3.0 6.0 0.00 0.00 0.00 75 1017.3
20260507103436 69 355 3.0 6.0 0.00 0.00 0.00 75 1017.3
20260507103359 69 342 3.0 6.0 0.00 0.00 0.00 74 1017.2
20260507103318 69 317 3.0 6.0 0.00 0.00 0.00 74 1017.2
20260507103137 69 297 3.0 6.0 0.00 0.00 0.00 74 1017.2
20260507102939 69 317 3.0 6.0 0.00 0.00 0.00 73 1017.2
20260507102922 69 284 3.0 6.0 0.00 0.00 0.00 73 1017.2
20260507102754 70 265 3.0 6.0 0.00 0.00 0.00 73 1017.1
20260507102630 70 277 3.0 6.0 0.00 0.00 0.00 72 1017.1
20260507102539 70 301 3.0 6.0 0.00 0.00 0.00 72 1017.1
20260507102448 70 259 3.0 7.0 0.00 0.00 0.00 72 1017.1
20260507102320 70 290 3.0 7.0 0.00 0.00 0.00 71 1017.1
20260507102213 70 284 3.0 7.0 0.00 0.00 0.00 71 1017.1
20260507102156 70 317 3.0 7.0 0.00 0.00 0.00 71 1017.1
20260507102025 70 292 4.0 7.0 0.00 0.00 0.00 71 1017.2
20260507101833 70 308 3.0 7.0 0.00 0.00 0.00 70 1017.2
20260507101730 70 292 3.0 7.0 0.00 0.00 0.00 70 1017.2
20260507101642 70 283 3.0 7.0 0.00 0.00 0.00 70 1017.2
20260507101508 70 325 3.0 7.0 0.00 0.00 0.00 69 1017.2
20260507101342 70 265 3.0 7.0 0.00 0.00 0.00 69 1017.2
20260507101321 70 282 3.0 7.0 0.00 0.00 0.00 69 1017.2
20260507101158 70 323 2.0 5.0 0.00 0.00 0.00 69 1017.2
20260507101023 70 284 2.0 5.0 0.00 0.00 0.00 69 1017.2
20260507100955 70 269 2.0 5.0 0.00 0.00 0.00 69 1017.2
20260507100908 70 286 2.0 5.0 0.00 0.00 0.00 69 1017.2
20260507100733 70 330 2.0 5.0 0.00 0.00 0.00 69 1017.2
20260507100611 70 330 2.0 4.0 0.00 0.00 0.00 69 1017.1
20260507100541 70 311 2.0 4.0 0.00 0.00 0.00 70 1017.1
20260507100331 70 311 2.0 4.0 0.00 0.00 0.00 69 1017.1
20260507100159 70 334 2.0 5.0 0.00 0.00 0.00 69 1017.1
20260507100125 70 333 2.0 5.0 0.00 0.00 0.00 69 1017.1
20260507100011 70 279 2.0 5.0 0.00 0.00 0.00 69 1017.1
20260507095620 70 241 2.0 5.0 0.00 0.00 0.00 69 1017.1
20260507095206 70 221 2.0 5.0 0.00 0.00 0.00 69 1017.1
20260507095029 70 221 2.0 5.0 0.00 0.00 0.00 69 1017.1
20260507094845 70 230 2.0 4.0 0.00 0.00 0.00 69 1017.1
20260507094813 70 272 2.0 4.0 0.00 0.00 0.00 69 1017.1
20260507094714 70 228 1.0 4.0 0.00 0.00 0.00 70 1017.1
20260507094534 70 254 1.0 4.0 0.00 0.00 0.00 70 1017.1
20260507094409 70 244 1.0 4.0 0.00 0.00 0.00 70 1017.0
20260507094355 70 244 1.0 4.0 0.00 0.00 0.00 70 1017.1
20260507094242 70 271 1.0 4.0 0.00 0.00 0.00 70 1017.0
20260507094130 70 296 2.0 4.0 0.00 0.00 0.00 69 1017.0
20260507093738 70 273 1.0 4.0 0.00 0.00 0.00 69 1017.0
20260507093602 70 255 1.0 4.0 0.00 0.00 0.00 69 1016.9
20260507093432 70 255 1.0 4.0 0.00 0.00 0.00 69 1016.7
20260507093341 70 212 1.0 4.0 0.00 0.00 0.00 69 1016.7
20260507093158 70 229 1.0 3.0 0.00 0.00 0.00 69 1016.7
20260507092959 70 229 1.0 4.0 0.00 0.00 0.00 69 1016.6
20260507092933 70 229 1.0 4.0 0.00 0.00 0.00 69 1016.6
20260507092756 70 229 1.0 4.0 0.00 0.00 0.00 70 1016.4
20260507092615 70 229 1.0 4.0 0.00 0.00 0.00 70 1016.3
20260507092504 70 227 1.0 4.0 0.00 0.00 0.00 70 1016.3
20260507092434 70 226 1.0 4.0 0.00 0.00 0.00 70 1016.3
20260507092230 70 219 1.0 4.0 0.00 0.00 0.00 70 1016.3
20260507092058 70 227 1.0 2.0 0.00 0.00 0.00 70 1016.2
20260507092019 70 227 1.0 2.0 0.00 0.00 0.00 70 1016.2
20260507091913 70 227 1.0 2.0 0.00 0.00 0.00 71 1016.2
20260507091732 70 227 1.0 2.0 0.00 0.00 0.00 71 1016.2
20260507091625 70 227 0.0 2.0 0.00 0.00 0.00 71 1016.2
20260507091552 70 227 0.0 2.0 0.00 0.00 0.00 71 1016.2
20260507091425 70 170 0.0 2.0 0.00 0.00 0.00 71 1016.2
20260507091224 70 169 0.0 2.0 0.00 0.00 0.00 72 1016.2
20260507091040 70 169 0.0 2.0 0.00 0.00 0.00 72 1016.0
20260507090853 69 170 0.0 2.0 0.00 0.00 0.00 72 1016.0
20260507090759 69 170 0.0 3.0 0.00 0.00 0.00 72 1016.0
20260507090723 69 169 0.0 3.0 0.00 0.00 0.00 72 1016.0
20260507090546 69 170 1.0 3.0 0.00 0.00 0.00 72 1016.0
20260507090329 69 169 1.0 3.0 0.00 0.00 0.00 72 1016.1
20260507090149 70 169 1.0 3.0 0.00 0.00 0.00 73 1016.1
20260507085956 70 215 1.0 3.0 0.00 0.00 0.00 73 1016.2
20260507085908 70 176 1.0 3.0 0.00 0.00 0.00 73 1016.2
20260507085649 70 169 1.0 3.0 0.00 0.00 0.00 73 1016.2
20260507085529 70 225 1.0 3.0 0.00 0.00 0.00 73 1016.2
20260507085351 70 188 1.0 3.0 0.00 0.00 0.00 73 1016.2
20260507085204 70 188 1.0 4.0 0.00 0.00 0.00 74 1016.2
20260507084936 70 168 1.0 4.0 0.00 0.00 0.00 74 1016.1
20260507084811 70 168 1.0 4.0 0.00 0.00 0.00 74 1016.1
20260507084653 70 168 1.0 4.0 0.00 0.00 0.00 74 1016.0
20260507084506 70 168 1.0 4.0 0.00 0.00 0.00 74 1015.9
20260507084246 70 168 1.0 4.0 0.00 0.00 0.00 73 1015.9
20260507084120 70 168 0.0 2.0 0.00 0.00 0.00 73 1015.9
20260507083931 70 168 1.0 3.0 0.00 0.00 0.00 73 1015.9
20260507083853 70 168 1.0 4.0 0.00 0.00 0.00 73 1015.8
20260507083748 70 168 1.0 4.0 0.00 0.00 0.00 73 1015.8
20260507083622 70 168 1.0 4.0 0.00 0.00 0.00 73 1015.7
20260507083438 70 136 1.0 4.0 0.00 0.00 0.00 73 1015.7
20260507083309 70 136 1.0 4.0 0.00 0.00 0.00 73 1015.7
20260507083123 69 157 1.0 4.0 0.00 0.00 0.00 72 1015.7
20260507083052 69 173 1.0 3.0 0.00 0.00 0.00 72 1015.7
20260507082931 69 159 1.0 4.0 0.00 0.00 0.00 72 1015.7
20260507082744 69 173 1.0 4.0 0.00 0.00 0.00 72 1015.7
20260507082533 69 186 1.0 4.0 0.00 0.00 0.00 72 1015.7
20260507082502 69 186 1.0 4.0 0.00 0.00 0.00 72 1015.7
20260507082225 69 185 1.0 4.0 0.00 0.00 0.00 72 1015.8
20260507081952 69 210 1.0 4.0 0.00 0.00 0.00 72 1015.8
20260507081852 69 203 1.0 4.0 0.00 0.00 0.00 72 1015.8
20260507081737 69 196 1.0 4.0 0.00 0.00 0.00 72 1015.7
20260507081620 69 183 2.0 4.0 0.00 0.00 0.00 73 1015.7
20260507081344 69 183 2.0 4.0 0.00 0.00 0.00 73 1015.7
20260507081229 69 183 2.0 4.0 0.00 0.00 0.00 72 1015.7
20260507081041 69 225 2.0 4.0 0.00 0.00 0.00 73 1015.6
20260507081002 69 194 2.0 4.0 0.00 0.00 0.00 73 1015.6
20260507080902 69 190 2.0 4.0 0.00 0.00 0.00 73 1015.6
20260507080725 69 133 1.0 4.0 0.00 0.00 0.00 73 1015.6
20260507080535 69 140 1.0 4.0 0.00 0.00 0.00 73 1015.6
20260507080326 69 198 1.0 4.0 0.00 0.00 0.00 73 1015.5
20260507080105 69 171 1.0 4.0 0.00 0.00 0.00 73 1015.3
20260507080008 69 192 1.0 4.0 0.00 0.00 0.00 73 1015.3
20260507075839 69 169 0.0 4.0 0.00 0.00 0.00 73 1015.3
20260507075645 69 168 0.0 2.0 0.00 0.00 0.00 73 1015.3
20260507075426 69 168 1.0 2.0 0.00 0.00 0.00 73 1015.3
20260507075413 69 168 1.0 2.0 0.00 0.00 0.00 74 1015.3
20260507075208 69 168 1.0 2.0 0.00 0.00 0.00 73 1015.3
20260507074932 68 168 1.0 2.0 0.00 0.00 0.00 74 1015.2
20260507074842 68 168 1.0 2.0 0.00 0.00 0.00 74 1015.2
20260507074731 68 160 1.0 2.0 0.00 0.00 0.00 74 1015.1
20260507074553 68 113 1.0 3.0 0.00 0.00 0.00 74 1015.0
20260507074418 68 71 1.0 3.0 0.00 0.00 0.00 74 1015.0
20260507074327 68 69 1.0 3.0 0.00 0.00 0.00 74 1015.0
20260507074122 68 69 1.0 3.0 0.00 0.00 0.00 74 1015.0
20260507073858 68 70 1.0 3.0 0.00 0.00 0.00 74 1014.9
20260507073826 68 98 1.0 3.0 0.00 0.00 0.00 74 1015.0
20260507073652 68 99 1.0 3.0 0.00 0.00 0.00 74 1015.0
20260507073543 68 57 0.0 3.0 0.00 0.00 0.00 75 1015.0
20260507073055 68 79 0.0 3.0 0.00 0.00 0.00 75 1015.0
20260507072849 68 81 1.0 3.0 0.00 0.00 0.00 75 1015.0
20260507072656 68 355 1.0 3.0 0.00 0.00 0.00 75 1015.1
20260507072255 68 345 1.0 4.0 0.00 0.00 0.00 75 1015.2
20260507072101 68 343 2.0 4.0 0.00 0.00 0.00 75 1015.3
20260507071854 68 343 2.0 4.0 0.00 0.00 0.00 75 1015.3
20260507071830 68 343 2.0 4.0 0.00 0.00 0.00 75 1015.3
20260507071624 68 322 2.0 4.0 0.00 0.00 0.00 76 1015.4
20260507071359 68 306 1.0 4.0 0.00 0.00 0.00 76 1015.3
20260507071328 68 242 1.0 4.0 0.00 0.00 0.00 77 1015.3
20260507071228 68 227 1.0 4.0 0.00 0.00 0.00 77 1015.4
20260507071104 68 228 1.0 4.0 0.00 0.00 0.00 77 1015.3
20260507070721 67 34 1.0 4.0 0.00 0.00 0.00 78 1015.3
20260507070516 67 263 1.0 4.0 0.00 0.00 0.00 79 1015.3
20260507070348 67 263 1.0 4.0 0.00 0.00 0.00 79 1015.3
20260507070305 67 263 1.0 4.0 0.00 0.00 0.00 79 1015.3
20260507070204 67 175 1.0 4.0 0.00 0.00 0.00 80 1015.4
20260507070025 67 246 1.0 2.0 0.00 0.00 0.00 80 1015.3
20260507065926 67 246 1.0 3.0 0.00 0.00 0.00 80 1015.3
20260507065901 67 246 1.0 3.0 0.00 0.00 0.00 80 1015.3
20260507065724 66 246 1.0 3.0 0.00 0.00 0.00 81 1015.3
20260507065606 66 246 1.0 3.0 0.00 0.00 0.00 81 1015.3
20260507065542 66 246 1.0 4.0 0.00 0.00 0.00 81 1015.4
20260507065443 66 202 1.0 4.0 0.00 0.00 0.00 80 1015.3
20260507065313 66 202 1.0 4.0 0.00 0.00 0.00 81 1015.4
20260507065157 66 191 1.0 4.0 0.00 0.00 0.00 81 1015.4
20260507065127 66 242 1.0 4.0 0.00 0.00 0.00 81 1015.4
20260507064937 66 234 1.0 4.0 0.00 0.00 0.00 81 1015.5
20260507064810 66 206 1.0 3.0 0.00 0.00 0.00 82 1015.5
20260507064728 66 219 1.0 3.0 0.00 0.00 0.00 82 1015.5
20260507064607 66 221 1.0 3.0 0.00 0.00 0.00 82 1015.4
20260507064413 65 232 1.0 3.0 0.00 0.00 0.00 82 1015.4
20260507064313 65 303 1.0 3.0 0.00 0.00 0.00 82 1015.4
20260507064242 65 303 1.0 3.0 0.00 0.00 0.00 82 1015.4
20260507064111 65 286 1.0 3.0 0.00 0.00 0.00 82 1015.4
20260507063948 65 269 1.0 4.0 0.00 0.00 0.00 82 1015.4
20260507063922 65 269 1.0 4.0 0.00 0.00 0.00 82 1015.4
20260507063711 65 194 2.0 4.0 0.00 0.00 0.00 82 1015.4
20260507063536 65 245 2.0 4.0 0.00 0.00 0.00 82 1015.3
20260507063415 65 245 2.0 4.0 0.00 0.00 0.00 82 1015.3
20260507063334 65 279 2.0 4.0 0.00 0.00 0.00 83 1015.3
20260507063125 65 214 2.0 5.0 0.00 0.00 0.00 83 1015.4
20260507062921 65 271 2.0 5.0 0.00 0.00 0.00 83 1015.3
20260507062905 65 271 2.0 5.0 0.00 0.00 0.00 83 1015.3
20260507062722 65 204 2.0 5.0 0.00 0.00 0.00 83 1015.3
20260507062553 65 254 2.0 5.0 0.00 0.00 0.00 83 1015.3
20260507062502 65 233 2.0 5.0 0.00 0.00 0.00 84 1015.3
20260507062403 65 217 2.0 5.0 0.00 0.00 0.00 84 1015.3
20260507062226 65 238 2.0 4.0 0.00 0.00 0.00 84 1015.3
20260507062048 64 253 2.0 4.0 0.00 0.00 0.00 85 1015.2
20260507062024 64 254 2.0 4.0 0.00 0.00 0.00 85 1015.2
20260507061851 64 227 2.0 4.0 0.00 0.00 0.00 85 1015.2
20260507061707 64 226 1.0 4.0 0.00 0.00 0.00 86 1015.1
20260507061601 64 229 1.0 4.0 0.00 0.00 0.00 86 1015.1
20260507061504 64 229 1.0 4.0 0.00 0.00 0.00 86 1015.1
20260507061321 64 229 1.0 4.0 0.00 0.00 0.00 87 1015.0
20260507060928 64 218 1.0 3.0 0.00 0.00 0.00 87 1015.0
20260507060710 63 218 1.0 3.0 0.00 0.00 0.00 87 1015.1
20260507060506 63 217 1.0 3.0 0.00 0.00 0.00 88 1015.0
20260507060435 63 218 1.0 3.0 0.00 0.00 0.00 88 1015.0
20260507060334 63 229 1.0 3.0 0.00 0.00 0.00 88 1015.0
20260507060145 63 186 1.0 3.0 0.00 0.00 0.00 88 1015.1
20260507060012 62 178 1.0 3.0 0.00 0.00 0.00 89 1015.0
20260507055827 62 178 1.0 3.0 0.00 0.00 0.00 89 1015.0
20260507055701 62 178 1.0 3.0 0.00 0.00 0.00 89 1015.1
20260507055248 62 167 1.0 4.0 0.00 0.00 0.00 89 1015.0
20260507055057 61 225 1.0 4.0 0.00 0.00 0.00 89 1015.0
20260507054952 61 225 2.0 4.0 0.00 0.00 0.00 89 1015.1
20260507054928 61 225 2.0 4.0 0.00 0.00 0.00 89 1015.1
20260507054752 61 225 2.0 4.0 0.00 0.00 0.00 89 1015.2
20260507054631 61 236 2.0 4.0 0.00 0.00 0.00 89 1015.2
20260507054607 61 237 1.0 4.0 0.00 0.00 0.00 90 1015.2
20260507054504 60 236 1.0 4.0 0.00 0.00 0.00 90 1015.2
20260507054334 60 238 1.0 4.0 0.00 0.00 0.00 90 1015.1
20260507054157 60 237 0.0 2.0 0.00 0.00 0.00 90 1015.1
20260507054136 60 211 0.0 0.0 0.00 0.00 0.00 90 1015.1
20260507054001 60 211 0.0 0.0 0.00 0.00 0.00 90 1014.9
20260507053817 59 210 0.0 0.0 0.00 0.00 0.00 90 1014.9
20260507053750 59 211 0.0 0.0 0.00 0.00 0.00 91 1014.9
20260507053538 59 211 0.0 0.0 0.00 0.00 0.00 90 1014.9
20260507053419 59 211 0.0 0.0 0.00 0.00 0.00 91 1015.0
20260507053246 59 211 0.0 0.0 0.00 0.00 0.00 91 1015.0
20260507053134 59 211 0.0 0.0 0.00 0.00 0.00 91 1015.0
20260507052924 58 211 0.0 0.0 0.00 0.00 0.00 91 1015.0
20260507052754 58 211 0.0 0.0 0.00 0.00 0.00 91 1015.0
20260507052738 58 211 0.0 0.0 0.00 0.00 0.00 90 1015.0
20260507052610 58 307 0.0 0.0 0.00 0.00 0.00 90 1015.0
20260507052443 57 309 0.0 0.0 0.00 0.00 0.00 91 1014.9
20260507052351 57 308 0.0 0.0 0.00 0.00 0.00 91 1014.9
20260507052328 57 308 0.0 0.0 0.00 0.00 0.00 91 1014.9
20260507052114 57 308 0.0 0.0 0.00 0.00 0.00 90 1014.9
20260507051909 57 309 0.0 0.0 0.00 0.00 0.00 90 1014.9
20260507051823 57 308 0.0 0.0 0.00 0.00 0.00 90 1014.9
20260507051645 56 309 0.0 0.0 0.00 0.00 0.00 90 1014.9
20260507051512 56 308 0.0 0.0 0.00 0.00 0.00 90 1014.9
20260507051059 56 308 0.0 0.0 0.00 0.00 0.00 90 1014.9
20260507050659 56 307 0.0 0.0 0.00 0.00 0.00 90 1014.9
20260507050209 56 308 0.0 0.0 0.00 0.00 0.00 90 1014.9
20260507045956 56 308 0.0 0.0 0.00 0.00 0.00 91 1014.8
20260507045556 56 307 0.0 0.0 0.00 0.00 0.00 90 1014.8
20260507045421 55 307 0.0 0.0 0.00 0.00 0.00 91 1014.8
20260507045150 55 309 0.0 0.0 0.00 0.00 0.00 91 1014.9
20260507045110 55 309 0.0 0.0 0.00 0.00 0.00 91 1014.9
20260507044930 55 308 0.0 0.0 0.00 0.00 0.00 90 1014.8
20260507044802 55 308 0.0 0.0 0.00 0.00 0.00 90 1014.8
20260507044721 55 308 0.0 0.0 0.00 0.00 0.00 90 1014.8
20260507044639 55 309 0.0 0.0 0.00 0.00 0.00 90 1014.8
20260507044454 55 309 0.0 0.0 0.00 0.00 0.00 90 1014.8
20260507044213 54 307 0.0 0.0 0.00 0.00 0.00 90 1014.8
20260507044146 54 308 0.0 0.0 0.00 0.00 0.00 90 1014.8
20260507043853 54 309 0.0 0.0 0.00 0.00 0.00 90 1014.8
20260507043645 54 308 0.0 0.0 0.00 0.00 0.00 90 1014.8
20260507043531 54 307 0.0 1.0 0.00 0.00 0.00 90 1014.8
20260507043418 54 309 0.0 2.0 0.00 0.00 0.00 90 1014.7
20260507043238 54 309 0.0 2.0 0.00 0.00 0.00 90 1014.7
20260507043033 54 308 1.0 2.0 0.00 0.00 0.00 89 1014.7
20260507042851 54 307 1.0 2.0 0.00 0.00 0.00 89 1014.7
20260507042619 54 307 1.0 2.0 0.00 0.00 0.00 89 1014.7
20260507042228 54 308 1.0 2.0 0.00 0.00 0.00 89 1014.7
20260507042022 54 308 1.0 2.0 0.00 0.00 0.00 89 1014.7
20260507041901 54 308 1.0 3.0 0.00 0.00 0.00 89 1014.8
20260507041652 54 308 1.0 3.0 0.00 0.00 0.00 89 1014.7
20260507041523 54 309 2.0 3.0 0.00 0.00 0.00 89 1014.7
20260507041427 54 309 2.0 3.0 0.00 0.00 0.00 89 1014.8
20260507041333 54 309 2.0 3.0 0.00 0.00 0.00 89 1014.8
20260507041155 54 318 2.0 3.0 0.00 0.00 0.00 89 1014.7
20260507041037 54 324 2.0 3.0 0.00 0.00 0.00 89 1014.7
20260507040637 54 345 2.0 4.0 0.00 0.00 0.00 89 1014.6
20260507040525 54 325 2.0 4.0 0.00 0.00 0.00 89 1014.6
20260507040444 54 309 2.0 4.0 0.00 0.00 0.00 89 1014.6
20260507040359 54 326 2.0 4.0 0.00 0.00 0.00 89 1014.6
20260507040140 54 294 2.0 4.0 0.00 0.00 0.00 89 1014.6
20260507040010 54 298 2.0 4.0 0.00 0.00 0.00 89 1014.6
20260507035944 54 333 2.0 4.0 0.00 0.00 0.00 89 1014.6
20260507035819 54 296 2.0 3.0 0.00 0.00 0.00 89 1014.6
20260507035632 54 293 1.0 3.0 0.00 0.00 0.00 89 1014.5
20260507035559 54 293 1.0 3.0 0.00 0.00 0.00 89 1014.5
20260507035442 54 291 1.0 3.0 0.00 0.00 0.00 89 1014.4
20260507035309 54 273 1.0 3.0 0.00 0.00 0.00 89 1014.4
20260507035102 54 287 1.0 3.0 0.00 0.00 0.00 89 1014.4
20260507035043 54 288 1.0 3.0 0.00 0.00 0.00 89 1014.4
20260507034843 54 318 1.0 2.0 0.00 0.00 0.00 89 1014.3
20260507034702 54 318 1.0 2.0 0.00 0.00 0.00 89 1014.3
20260507034556 54 318 1.0 2.0 0.00 0.00 0.00 89 1014.3
20260507034507 54 318 1.0 1.0 0.00 0.00 0.00 89 1014.2
20260507034354 54 318 1.0 2.0 0.00 0.00 0.00 89 1014.2
20260507033946 54 319 1.0 2.0 0.00 0.00 0.00 92 1014.2
20260507033814 54 318 1.0 3.0 0.00 0.00 0.00 92 1014.2
20260507033658 54 318 2.0 3.0 0.00 0.00 0.00 89 1014.2
20260507033626 54 318 2.0 3.0 0.00 0.00 0.00 89 1014.2
20260507033517 54 318 2.0 3.0 0.00 0.00 0.00 89 1014.2
20260507033321 54 318 2.0 3.0 0.00 0.00 0.00 89 1014.2
20260507033110 54 318 2.0 3.0 0.00 0.00 0.00 89 1014.2
20260507032618 54 318 2.0 3.0 0.00 0.00 0.00 89 1014.3
20260507032110 54 319 2.0 3.0 0.00 0.00 0.00 89 1014.3
20260507032008 54 310 2.0 3.0 0.00 0.00 0.00 89 1014.3
20260507031912 54 336 2.0 3.0 0.00 0.00 0.00 89 1014.3
20260507031732 54 300 2.0 3.0 0.00 0.00 0.00 89 1014.3
20260507031557 54 303 2.0 3.0 0.00 0.00 0.00 89 1014.3
20260507031529 54 314 2.0 3.0 0.00 0.00 0.00 89 1014.3
20260507031233 54 304 2.0 3.0 0.00 0.00 0.00 89 1014.3
20260507031016 54 307 2.0 4.0 0.00 0.00 0.00 89 1014.3
20260507030938 54 318 2.0 4.0 0.00 0.00 0.00 89 1014.3
20260507030801 54 309 2.0 4.0 0.00 0.00 0.00 89 1014.3
20260507030539 54 314 2.0 4.0 0.00 0.00 0.00 89 1014.3
20260507030311 54 311 2.0 4.0 0.00 0.00 0.00 89 1014.3
20260507030243 54 323 2.0 4.0 0.00 0.00 0.00 89 1014.3
20260507030059 54 285 1.0 4.0 0.00 0.00 0.00 89 1014.4
20260507025821 54 304 1.0 4.0 0.00 0.00 0.00 89 1014.4
20260507025728 54 286 1.0 4.0 0.00 0.00 0.00 89 1014.3
20260507025541 54 280 1.0 4.0 0.00 0.00 0.00 89 1014.3
20260507025324 54 290 1.0 3.0 0.00 0.00 0.00 89 1014.2
20260507025107 54 290 2.0 3.0 0.00 0.00 0.00 89 1014.2
20260507025024 54 290 2.0 4.0 0.00 0.00 0.00 89 1014.2
20260507024754 54 290 2.0 4.0 0.00 0.00 0.00 89 1014.1
20260507024450 55 333 2.0 4.0 0.00 0.00 0.00 89 1014.1
20260507024429 55 332 2.0 4.0 0.00 0.00 0.00 89 1014.1
20260507024204 55 321 2.0 4.0 0.00 0.00 0.00 89 1014.0
20260507023855 55 326 2.0 4.0 0.00 0.00 0.00 89 1014.1
20260507023625 55 304 2.0 4.0 0.00 0.00 0.00 89 1014.0
20260507023503 55 307 2.0 4.0 0.00 0.00 0.00 89 1014.0
20260507023219 55 338 2.0 4.0 0.00 0.00 0.00 89 1014.0
20260507022939 55 314 2.0 4.0 0.00 0.00 0.00 89 1014.1
20260507022921 55 302 2.0 4.0 0.00 0.00 0.00 89 1014.1
20260507022717 55 304 2.0 4.0 0.00 0.00 0.00 89 1014.0
20260507022541 55 276 1.0 4.0 0.00 0.00 0.00 89 1014.0
20260507022434 55 313 1.0 4.0 0.00 0.00 0.00 89 1014.0
20260507022341 55 294 1.0 3.0 0.00 0.00 0.00 89 1014.0
20260507022139 55 274 1.0 3.0 0.00 0.00 0.00 89 1014.0
20260507021949 55 298 1.0 4.0 0.00 0.00 0.00 89 1014.0
20260507021929 55 295 1.0 4.0 0.00 0.00 0.00 89 1014.0
20260507021811 55 295 2.0 4.0 0.00 0.00 0.00 89 1013.9
20260507021620 55 295 2.0 4.0 0.00 0.00 0.00 89 1013.9
20260507021502 55 285 3.0 4.0 0.00 0.00 0.00 89 1013.9
20260507021415 55 284 3.0 4.0 0.00 0.00 0.00 92 1014.0
20260507021210 55 300 3.0 4.0 0.00 0.00 0.00 90 1014.1
20260507020759 55 324 3.0 4.0 0.00 0.00 0.00 90 1014.1
20260507020749 55 333 3.0 4.0 0.00 0.00 0.00 90 1014.1
20260507020550 55 306 3.0 5.0 0.00 0.00 0.00 90 1014.0
20260507020350 55 322 3.0 5.0 0.00 0.00 0.00 90 1014.1
20260507020254 55 314 3.0 5.0 0.00 0.00 0.00 90 1014.0
20260507020202 55 293 3.0 5.0 0.00 0.00 0.00 90 1014.0
20260507020018 55 299 3.0 5.0 0.00 0.00 0.00 90 1014.1
20260507015852 55 290 3.0 5.0 0.00 0.00 0.00 90 1014.0
20260507015847 55 281 3.0 5.0 0.00 0.00 0.00 90 1014.0
20260507015721 55 333 3.0 5.0 0.00 0.00 0.00 90 1014.1
20260507015345 55 326 3.0 5.0 0.00 0.00 0.00 89 1014.0
20260507015245 55 310 3.0 5.0 0.00 0.00 0.00 90 1014.0
20260507015143 55 338 3.0 5.0 0.00 0.00 0.00 90 1014.0
20260507014942 55 325 3.0 5.0 0.00 0.00 0.00 90 1014.0
20260507014909 78 119 3.0 9.0 0.00 0.00 0.00 48 1014.1
20260507014749 55 294 3.0 6.0 0.00 0.00 0.00 90 1014.1
20260507014617 56 288 3.0 6.0 0.00 0.00 0.00 90 1014.1
20260507014439 56 308 3.0 6.0 0.00 0.00 0.00 90 1014.1
20260507014344 56 312 3.0 6.0 0.00 0.00 0.00 90 1014.1
20260507014258 56 336 3.0 6.0 0.00 0.00 0.00 90 1014.1
20260507014133 56 309 3.0 6.0 0.00 0.00 0.00 90 1014.0
20260507014010 56 292 3.0 6.0 0.00 0.00 0.00 90 1014.1
20260507013849 56 325 4.0 7.0 0.00 0.00 0.00 90 1014.1
20260507013727 56 300 4.0 7.0 0.00 0.00 0.00 90 1014.0
20260507013334 56 315 4.0 7.0 0.00 0.00 0.00 90 1013.9
20260507013215 56 350 4.0 7.0 0.00 0.00 0.00 90 1013.9
20260507013050 56 331 4.0 8.0 0.00 0.00 0.00 90 1013.9
20260507012712 56 295 5.0 8.0 0.00 0.00 0.00 90 1013.9
20260507012536 56 323 5.0 9.0 0.00 0.00 0.00 90 1013.9
20260507012146 56 321 5.0 9.0 0.00 0.00 0.00 90 1013.9
20260507012131 78 114 4.0 9.0 0.00 0.00 0.00 49 1014.1
20260507012026 77 197 3.0 7.0 0.00 0.00 0.00 52 1014.1
20260507011938 56 334 5.0 9.0 0.00 0.00 0.00 89 1013.9
20260507011813 56 309 5.0 9.0 0.00 0.00 0.00 89 1013.9
20260507011804 56 317 5.0 9.0 0.00 0.00 0.00 89 1013.9
20260507011633 56 321 5.0 9.0 0.00 0.00 0.00 89 1013.9
20260507011456 56 311 5.0 8.0 0.00 0.00 0.00 89 1013.9
20260507011416 56 314 5.0 8.0 0.00 0.00 0.00 89 1014.0
20260507011326 56 309 4.0 8.0 0.00 0.00 0.00 89 1014.0
20260507011147 56 321 4.0 8.0 0.00 0.00 0.00 89 1013.9
20260507010746 56 319 4.0 8.0 0.00 0.00 0.00 89 1014.0
20260507010735 56 326 4.0 8.0 0.00 0.00 0.00 89 1014.0
20260507010542 56 316 4.0 8.0 0.00 0.00 0.00 89 1014.0
20260507010335 56 339 4.0 8.0 0.00 0.00 0.00 89 1014.0
20260507010244 56 311 4.0 8.0 0.00 0.00 0.00 89 1014.0
20260507010146 56 314 4.0 8.0 0.00 0.00 0.00 89 1014.0
20260507005943 56 343 4.0 8.0 0.00 0.00 0.00 89 1014.0
20260507005823 56 304 4.0 8.0 0.00 0.00 0.00 89 1014.0
20260507005711 56 290 4.0 7.0 0.00 0.00 0.00 89 1013.9
20260507005531 56 327 3.0 7.0 0.00 0.00 0.00 89 1014.0
20260507005443 56 318 3.0 6.0 0.00 0.00 0.00 89 1013.9
20260507005133 56 294 3.0 6.0 0.00 0.00 0.00 89 1013.9
20260507005117 68 281 1.0 3.0 0.00 0.00 0.00 67 1014.1
20260507004935 56 319 3.0 6.0 0.00 0.00 0.00 89 1013.9
20260507004747 56 295 3.0 4.0 0.00 0.00 0.00 89 1013.8
20260507004629 56 296 3.0 4.0 0.00 0.00 0.00 89 1013.8
20260507004510 56 314 2.0 4.0 0.00 0.00 0.00 88 1013.8
20260507004403 56 331 2.0 4.0 0.00 0.00 0.00 88 1013.8
20260507004324 56 311 2.0 4.0 0.00 0.00 0.00 88 1013.8
20260507003939 56 321 2.0 4.0 0.00 0.00 0.00 88 1013.7
20260507003806 56 308 2.0 4.0 0.00 0.00 0.00 88 1013.7
20260507003656 56 339 2.0 6.0 0.00 0.00 0.00 88 1013.7
20260507003530 56 313 3.0 6.0 0.00 0.00 0.00 88 1013.6
20260507003134 56 0 3.0 6.0 0.00 0.00 0.00 88 1013.7
20260507002959 56 315 3.0 6.0 0.00 0.00 0.00 88 1013.7
20260507002837 56 315 3.0 6.0 0.00 0.00 0.00 88 1013.7
20260507002830 56 321 3.0 6.0 0.00 0.00 0.00 88 1013.7
20260507002714 56 314 3.0 5.0 0.00 0.00 0.00 88 1013.7
20260507002547 56 281 3.0 5.0 0.00 0.00 0.00 88 1013.7
20260507002503 56 306 3.0 5.0 0.00 0.00 0.00 88 1013.8
20260507002417 57 311 3.0 6.0 0.00 0.00 0.00 88 1013.7
20260507002256 57 321 2.0 6.0 0.00 0.00 0.00 88 1013.8
20260507002118 57 303 2.0 6.0 0.00 0.00 0.00 88 1013.8
20260507002111 57 290 2.0 6.0 0.00 0.00 0.00 88 1013.8
20260507001940 57 291 2.0 6.0 0.00 0.00 0.00 88 1013.7
20260507001751 57 288 2.0 6.0 0.00 0.00 0.00 88 1013.6
20260507001715 57 284 2.0 6.0 0.00 0.00 0.00 88 1013.6
20260507001408 57 286 2.0 3.0 0.00 0.00 0.00 88 1013.5
20260507001023 58 306 2.0 3.0 0.00 0.00 0.00 88 1013.5
20260507000913 58 300 1.0 3.0 0.00 0.00 0.00 88 1013.6
20260507000750 58 306 1.0 3.0 0.00 0.00 0.00 88 1013.6
20260507000346 58 300 2.0 3.0 0.00 0.00 0.00 88 1013.6
20260507000215 58 305 2.0 3.0 0.00 0.00 0.00 88 1013.6
20260507000024 58 306 1.0 3.0 0.00 0.00 0.00 88 1013.7
20260506235935 58 307 1.0 3.0 0.00 0.00 0.00 88 1013.7
20260506235736 58 302 1.0 3.0 0.00 0.00 0.00 88 1013.6
20260506235609 58 312 1.0 3.0 0.00 0.00 0.00 88 1013.7
20260506235516 58 326 1.0 3.0 0.00 0.00 0.00 88 1013.7
20260506235402 58 328 1.0 3.0 0.00 0.00 0.00 88 1013.7
20260506235232 58 314 1.0 3.0 0.00 0.00 0.00 88 1013.8
20260506234855 57 324 1.0 3.0 0.00 0.00 0.00 88 1013.9
20260506234732 57 324 1.0 2.0 0.00 0.00 0.00 88 1014.0
20260506234550 57 318 1.0 2.0 0.00 0.00 0.00 88 1014.0
20260506234514 57 315 0.0 2.0 0.00 0.00 0.00 88 1014.0
20260506234420 57 315 0.0 2.0 0.00 0.00 0.00 88 1014.0
20260506234219 57 315 0.0 2.0 0.00 0.00 0.00 87 1014.0
20260506234023 57 315 1.0 4.0 0.00 0.00 0.00 87 1014.1
20260506233952 57 315 1.0 4.0 0.00 0.00 0.00 87 1014.1
20260506233837 57 0 1.0 4.0 0.00 0.00 0.00 87 1014.0
20260506233658 57 0 2.0 4.0 0.00 0.00 0.00 87 1014.0
20260506233544 57 0 2.0 4.0 0.00 0.00 0.00 87 1014.1
20260506233423 57 337 3.0 5.0 0.00 0.00 0.00 87 1014.1
20260506233303 57 335 3.0 5.0 0.00 0.00 0.00 87 1014.1
20260506233201 57 314 3.0 5.0 0.00 0.00 0.00 87 1014.2
20260506233149 57 318 3.0 5.0 0.00 0.00 0.00 87 1014.2
20260506233012 58 318 3.0 5.0 0.00 0.00 0.00 86 1014.1
20260506232844 58 319 3.0 5.0 0.00 0.00 0.00 86 1014.1
20260506232454 58 307 4.0 5.0 0.00 0.00 0.00 86 1014.1
20260506232255 58 306 3.0 5.0 0.00 0.00 0.00 86 1014.1
20260506232116 58 304 3.0 5.0 0.00 0.00 0.00 86 1014.2
20260506232102 58 296 3.0 5.0 0.00 0.00 0.00 86 1014.2
20260506231921 58 327 3.0 5.0 0.00 0.00 0.00 85 1014.1
20260506231753 59 313 3.0 5.0 0.00 0.00 0.00 85 1014.1
20260506231653 59 296 3.0 5.0 0.00 0.00 0.00 85 1014.1
20260506231556 59 327 3.0 5.0 0.00 0.00 0.00 85 1014.1
20260506231429 59 322 3.0 5.0 0.00 0.00 0.00 85 1014.1
20260506231235 59 318 2.0 5.0 0.00 0.00 0.00 85 1014.1
20260506231203 59 317 2.0 5.0 0.00 0.00 0.00 85 1014.0
20260506231026 59 330 2.0 4.0 0.00 0.00 0.00 85 1014.0
20260506230831 59 338 2.0 4.0 0.00 0.00 0.00 85 1014.0
20260506230728 60 311 2.0 4.0 0.00 0.00 0.00 85 1014.0
20260506230616 60 317 2.0 4.0 0.00 0.00 0.00 85 1014.0
20260506230349 60 315 1.0 3.0 0.00 0.00 0.00 85 1014.0
20260506225930 60 315 1.0 3.0 0.00 0.00 0.00 85 1014.0
20260506225808 60 315 0.0 3.0 0.00 0.00 0.00 85 1013.9
20260506225559 60 315 0.0 2.0 0.00 0.00 0.00 85 1013.9
20260506225535 60 315 0.0 2.0 0.00 0.00 0.00 85 1014.0
20260506225423 60 315 0.0 1.0 0.00 0.00 0.00 85 1014.0
20260506225250 60 315 0.0 1.0 0.00 0.00 0.00 85 1013.9
20260506225120 60 315 0.0 1.0 0.00 0.00 0.00 85 1014.1
20260506225046 60 315 0.0 1.0 0.00 0.00 0.00 85 1014.1
20260506224921 60 315 0.0 1.0 0.00 0.00 0.00 85 1014.1
20260506224735 60 315 1.0 1.0 0.00 0.00 0.00 84 1014.0
20260506224722 60 316 1.0 1.0 0.00 0.00 0.00 84 1014.0
20260506224601 60 315 1.0 2.0 0.00 0.00 0.00 84 1014.0
20260506224443 60 315 1.0 2.0 0.00 0.00 0.00 84 1014.1
20260506224342 60 316 1.0 2.0 0.00 0.00 0.00 84 1014.0
20260506224254 61 315 1.0 2.0 0.00 0.00 0.00 84 1014.0
20260506224053 61 315 1.0 2.0 0.00 0.00 0.00 84 1014.0
20260506223911 61 315 1.0 2.0 0.00 0.00 0.00 84 1014.1
20260506223701 61 315 1.0 2.0 0.00 0.00 0.00 84 1014.1
20260506223552 61 315 1.0 3.0 0.00 0.00 0.00 84 1014.0
20260506223226 61 315 1.0 3.0 0.00 0.00 0.00 84 1014.0
20260506222956 61 315 1.0 3.0 0.00 0.00 0.00 84 1014.1
20260506222716 61 315 1.0 3.0 0.00 0.00 0.00 84 1014.0
20260506222331 61 315 1.0 3.0 0.00 0.00 0.00 84 1014.0
20260506222119 62 315 1.0 3.0 0.00 0.00 0.00 84 1014.0
20260506222019 62 315 1.0 3.0 0.00 0.00 0.00 84 1014.1
20260506221903 62 315 1.0 3.0 0.00 0.00 0.00 84 1014.1
20260506221716 62 315 1.0 3.0 0.00 0.00 0.00 84 1014.1
20260506221324 62 315 1.0 3.0 0.00 0.00 0.00 84 1014.2
20260506221134 62 315 1.0 3.0 0.00 0.00 0.00 84 1014.2
20260506220820 62 315 1.0 3.0 0.00 0.00 0.00 84 1014.1
20260506220729 62 315 1.0 2.0 0.00 0.00 0.00 84 1014.1
20260506220618 62 315 0.0 2.0 0.00 0.00 0.00 84 1014.1
20260506220503 62 315 0.0 2.0 0.00 0.00 0.00 84 1014.1
20260506220322 63 315 0.0 2.0 0.00 0.00 0.00 84 1014.1
20260506220243 63 315 0.0 2.0 0.00 0.00 0.00 84 1014.1
20260506220056 63 315 0.0 1.0 0.00 0.00 0.00 84 1014.0
20260506215924 63 315 0.0 1.0 0.00 0.00 0.00 84 1014.0
20260506215851 63 315 0.0 1.0 0.00 0.00 0.00 84 1014.0
20260506215748 63 315 0.0 1.0 0.00 0.00 0.00 84 1014.1
20260506215557 63 315 0.0 1.0 0.00 0.00 0.00 84 1014.1
20260506215429 63 315 0.0 1.0 0.00 0.00 0.00 84 1014.1
20260506215403 63 315 0.0 0.0 0.00 0.00 0.00 84 1014.1
20260506215126 63 315 0.0 0.0 0.00 0.00 0.00 84 1014.1
20260506214914 63 315 0.0 1.0 0.00 0.00 0.00 84 1014.1
20260506214717 63 315 0.0 2.0 0.00 0.00 0.00 84 1014.1
20260506214542 63 315 0.0 2.0 0.00 0.00 0.00 84 1014.1
20260506214435 63 315 0.0 2.0 0.00 0.00 0.00 84 1014.1
20260506214311 63 315 0.0 2.0 0.00 0.00 0.00 84 1014.0
20260506214144 63 315 0.0 2.0 0.00 0.00 0.00 84 1014.0
20260506213959 63 315 0.0 2.0 0.00 0.00 0.00 84 1014.1
20260506213755 63 315 0.0 2.0 0.00 0.00 0.00 84 1014.1
20260506213552 63 315 0.0 2.0 0.00 0.00 0.00 84 1014.1
20260506213202 63 315 0.0 2.0 0.00 0.00 0.00 84 1014.1
20260506213040 63 315 0.0 2.0 0.00 0.00 0.00 84 1014.1
20260506212834 63 315 0.0 2.0 0.00 0.00 0.00 84 1014.2
20260506212652 63 315 0.0 2.0 0.00 0.00 0.00 84 1014.2
20260506212257 63 315 0.0 2.0 0.00 0.00 0.00 84 1014.2
20260506212214 63 315 0.0 2.0 0.00 0.00 0.00 84 1014.2
20260506212108 63 315 0.0 2.0 0.00 0.00 0.00 84 1014.1
20260506211950 63 315 0.0 1.0 0.00 0.00 0.00 83 1014.2
20260506211751 63 315 0.0 1.0 0.00 0.00 0.00 83 1014.2
20260506211601 63 315 0.0 1.0 0.00 0.00 0.00 83 1014.2
20260506211427 63 315 0.0 1.0 0.00 0.00 0.00 83 1014.2
20260506211323 63 315 0.0 1.0 0.00 0.00 0.00 83 1014.2
20260506211159 63 315 0.0 1.0 0.00 0.00 0.00 83 1014.2
20260506210958 63 315 0.0 1.0 0.00 0.00 0.00 83 1014.2
20260506210823 63 315 0.0 1.0 0.00 0.00 0.00 83 1014.2
20260506210802 63 315 0.0 1.0 0.00 0.00 0.00 83 1014.2
20260506210627 63 315 0.0 1.0 0.00 0.00 0.00 83 1014.2
20260506210452 64 315 0.0 1.0 0.00 0.00 0.00 83 1014.2
20260506210022 64 315 0.0 1.0 0.00 0.00 0.00 83 1014.2
20260506205852 64 315 0.0 2.0 0.00 0.00 0.00 83 1014.2
20260506205725 64 315 1.0 3.0 0.00 0.00 0.00 83 1014.2
20260506205643 64 315 1.0 3.0 0.00 0.00 0.00 83 1014.2
20260506205428 62 307 2.0 4.0 0.00 0.00 0.00 82 1014.5
20260506205343 64 315 1.0 3.0 0.00 0.00 0.00 83 1014.3
20260506205140 64 315 1.0 3.0 0.00 0.00 0.00 83 1014.3
20260506205122 64 316 1.0 3.0 0.00 0.00 0.00 83 1014.3
20260506204955 64 315 1.0 3.0 0.00 0.00 0.00 83 1014.3
20260506204745 64 315 1.0 3.0 0.00 0.00 0.00 83 1014.4
20260506204641 64 315 1.0 3.0 0.00 0.00 0.00 83 1014.4
20260506204608 64 311 1.0 3.0 0.00 0.00 0.00 83 1014.4
20260506204402 64 300 1.0 3.0 0.00 0.00 0.00 83 1014.3
20260506204137 64 308 1.0 3.0 0.00 0.00 0.00 83 1014.4
20260506203935 64 300 1.0 3.0 0.00 0.00 0.00 83 1014.3
20260506203716 64 302 1.0 3.0 0.00 0.00 0.00 83 1014.3
20260506203618 64 302 1.0 3.0 0.00 0.00 0.00 83 1014.3
20260506203542 64 302 1.0 3.0 0.00 0.00 0.00 83 1014.2
20260506203347 64 301 1.0 3.0 0.00 0.00 0.00 83 1014.3
20260506203200 64 302 1.0 3.0 0.00 0.00 0.00 83 1014.2
20260506203130 64 302 1.0 3.0 0.00 0.00 0.00 83 1014.2
20260506203016 64 234 1.0 2.0 0.00 0.00 0.00 83 1014.3
20260506202836 64 233 0.0 2.0 0.00 0.00 0.00 82 1014.2
20260506202753 64 233 0.0 2.0 0.00 0.00 0.00 82 1014.2
20260506202714 64 234 0.0 2.0 0.00 0.00 0.00 82 1014.2
20260506202531 64 234 0.0 2.0 0.00 0.00 0.00 82 1014.2
20260506202258 64 234 0.0 2.0 0.00 0.00 0.00 82 1014.2
20260506202244 64 233 0.0 2.0 0.00 0.00 0.00 82 1014.2
20260506202112 64 234 0.0 1.0 0.00 0.00 0.00 82 1014.1
20260506201835 64 234 0.0 1.0 0.00 0.00 0.00 82 1014.2
20260506201730 64 233 0.0 1.0 0.00 0.00 0.00 82 1014.2
20260506201651 64 233 0.0 1.0 0.00 0.00 0.00 82 1014.1
20260506201256 64 233 0.0 2.0 0.00 0.00 0.00 82 1014.1
20260506201047 65 233 0.0 2.0 0.00 0.00 0.00 82 1014.1
20260506201039 65 234 0.0 2.0 0.00 0.00 0.00 82 1014.1
20260506200904 65 233 0.0 2.0 0.00 0.00 0.00 82 1014.1
20260506200737 65 234 0.0 2.0 0.00 0.00 0.00 82 1014.0
20260506200656 65 234 0.0 2.0 0.00 0.00 0.00 82 1014.0
20260506200615 65 234 0.0 2.0 0.00 0.00 0.00 82 1014.0
20260506200455 65 234 0.0 1.0 0.00 0.00 0.00 82 1014.0
20260506200219 65 234 0.0 2.0 0.00 0.00 0.00 82 1013.9
20260506195830 65 233 0.0 2.0 0.00 0.00 0.00 82 1013.9
20260506195732 54 304 1.0 3.0 0.00 0.00 0.00 89 1014.4
20260506195633 65 234 0.0 2.0 0.00 0.00 0.00 82 1014.0
20260506195539 65 233 1.0 2.0 0.00 0.00 0.00 82 1014.0
20260506195438 65 233 1.0 2.0 0.00 0.00 0.00 82 1014.0
20260506195233 65 234 1.0 2.0 0.00 0.00 0.00 82 1014.1
20260506195049 65 233 1.0 2.0 0.00 0.00 0.00 82 1014.0
20260506195036 65 234 1.0 2.0 0.00 0.00 0.00 82 1014.0
20260506194842 65 234 1.0 3.0 0.00 0.00 0.00 82 1014.0
20260506194651 65 234 1.0 3.0 0.00 0.00 0.00 82 1014.0
20260506194624 65 233 1.0 3.0 0.00 0.00 0.00 82 1014.0
20260506194529 65 198 1.0 3.0 0.00 0.00 0.00 82 1013.8
20260506194345 65 198 1.0 3.0 0.00 0.00 0.00 82 1013.9
20260506194152 65 198 1.0 3.0 0.00 0.00 0.00 82 1013.8
20260506194101 65 198 1.0 3.0 0.00 0.00 0.00 82 1013.8
20260506193851 65 210 0.0 3.0 0.00 0.00 0.00 82 1013.8
20260506193728 65 192 0.0 2.0 0.00 0.00 0.00 82 1013.7
20260506193647 65 192 0.0 2.0 0.00 0.00 0.00 82 1013.7
20260506193531 65 192 1.0 3.0 0.00 0.00 0.00 82 1013.7
20260506193337 65 192 1.0 3.0 0.00 0.00 0.00 82 1013.7
20260506193149 65 192 1.0 3.0 0.00 0.00 0.00 82 1013.7
20260506193035 65 192 1.0 3.0 0.00 0.00 0.00 82 1013.7
20260506192822 65 218 1.0 3.0 0.00 0.00 0.00 82 1013.7
20260506192627 65 202 1.0 3.0 0.00 0.00 0.00 82 1013.7
20260506192513 65 211 1.0 3.0 0.00 0.00 0.00 82 1013.7
20260506192343 65 232 1.0 3.0 0.00 0.00 0.00 82 1013.7
20260506192157 65 141 0.0 2.0 0.00 0.00 0.00 82 1013.7
20260506192123 65 141 0.0 2.0 0.00 0.00 0.00 82 1013.7
20260506191906 65 141 0.0 2.0 0.00 0.00 0.00 82 1013.7
20260506191616 65 141 0.0 2.0 0.00 0.00 0.00 82 1013.7
20260506191405 65 141 0.0 1.0 0.00 0.00 0.00 82 1013.7
20260506191221 65 141 0.0 1.0 0.00 0.00 0.00 82 1013.7
20260506191108 65 141 0.0 1.0 0.00 0.00 0.00 82 1013.7
20260506191027 65 141 0.0 1.0 0.00 0.00 0.00 82 1013.7
20260506190843 65 141 0.0 1.0 0.00 0.00 0.00 81 1013.7
20260506190719 65 141 0.0 1.0 0.00 0.00 0.00 81 1013.7
20260506190640 65 141 0.0 1.0 0.00 0.00 0.00 81 1013.7
20260506190512 65 141 0.0 2.0 0.00 0.00 0.00 81 1013.7
20260506190350 65 141 0.0 2.0 0.00 0.00 0.00 81 1013.7
20260506190216 65 141 0.0 2.0 0.00 0.00 0.00 81 1013.7
20260506190146 65 141 0.0 2.0 0.00 0.00 0.00 81 1013.7
20260506185942 65 141 1.0 2.0 0.00 0.00 0.00 81 1013.6
20260506185733 65 141 1.0 2.0 0.00 0.00 0.00 81 1013.7
20260506185641 65 141 1.0 2.0 0.00 0.00 0.00 81 1013.7
20260506185525 65 141 1.0 4.0 0.00 0.00 0.00 81 1013.5
20260506185341 65 141 1.0 4.0 0.00 0.00 0.00 81 1013.6
20260506185241 65 159 1.0 5.0 0.00 0.00 0.00 81 1013.6
20260506185203 65 159 1.0 5.0 0.00 0.00 0.00 81 1013.6
20260506185046 65 149 1.0 5.0 0.00 0.00 0.00 81 1013.6
20260506184913 66 121 1.0 5.0 0.00 0.00 0.00 81 1013.5
20260506184434 66 113 1.0 5.0 0.00 0.00 0.00 81 1013.5
20260506184301 66 159 1.0 4.0 0.00 0.00 0.00 81 1013.5
20260506184202 66 183 1.0 3.0 0.00 0.00 0.00 80 1013.5
20260506184124 66 145 1.0 3.0 0.00 0.00 0.00 80 1013.5
20260506184004 66 123 1.0 3.0 0.00 0.00 0.00 80 1013.5
20260506183759 66 119 1.0 3.0 0.00 0.00 0.00 80 1013.4
20260506183746 66 113 1.0 3.0 0.00 0.00 0.00 80 1013.4
20260506183614 66 167 0.0 3.0 0.00 0.00 0.00 80 1013.4
20260506183424 66 137 0.0 2.0 0.00 0.00 0.00 80 1013.4
20260506183316 66 137 1.0 2.0 0.00 0.00 0.00 80 1013.3
20260506183225 66 137 1.0 2.0 0.00 0.00 0.00 80 1013.3
20260506183113 66 137 1.0 3.0 0.00 0.00 0.00 80 1013.3
20260506182746 66 117 1.0 3.0 0.00 0.00 0.00 80 1013.3
20260506182524 66 103 1.0 3.0 0.00 0.00 0.00 80 1013.2
20260506182324 66 165 1.0 3.0 0.00 0.00 0.00 79 1013.2
20260506182228 66 126 1.0 3.0 0.00 0.00 0.00 79 1013.2
20260506182103 66 154 0.0 3.0 0.00 0.00 0.00 79 1013.2
20260506181943 66 142 0.0 3.0 0.00 0.00 0.00 79 1013.1
20260506181727 66 192 0.0 1.0 0.00 0.00 0.00 79 1013.1
20260506181538 66 192 0.0 1.0 0.00 0.00 0.00 79 1013.1
20260506181416 66 192 0.0 1.0 0.00 0.00 0.00 78 1013.1
20260506181012 67 192 0.0 2.0 0.00 0.00 0.00 78 1013.1
20260506180802 67 192 0.0 2.0 0.00 0.00 0.00 78 1013.1
20260506180615 67 192 0.0 2.0 0.00 0.00 0.00 78 1013.1
20260506180540 67 192 0.0 2.0 0.00 0.00 0.00 78 1013.1
20260506180359 67 192 0.0 2.0 0.00 0.00 0.00 78 1013.0
20260506180155 67 192 0.0 2.0 0.00 0.00 0.00 78 1013.0
20260506180059 67 192 1.0 2.0 0.00 0.00 0.00 78 1013.0
20260506180010 67 192 1.0 5.0 0.00 0.00 0.00 78 1013.0
20260506175901 67 192 1.0 5.0 0.00 0.00 0.00 77 1012.9
20260506175723 67 192 1.0 5.0 0.00 0.00 0.00 77 1012.8
20260506175647 67 192 1.0 5.0 0.00 0.00 0.00 77 1012.9
20260506175518 67 192 1.0 5.0 0.00 0.00 0.00 77 1012.8
20260506175350 67 171 1.0 5.0 0.00 0.00 0.00 77 1012.8
20260506174958 67 155 1.0 4.0 0.00 0.00 0.00 77 1012.8
20260506174847 67 182 1.0 4.0 0.00 0.00 0.00 77 1012.8
20260506174739 67 153 1.0 4.0 0.00 0.00 0.00 76 1012.8
20260506174716 67 211 1.0 4.0 0.00 0.00 0.00 76 1012.7
20260506174607 67 212 1.0 4.0 0.00 0.00 0.00 76 1012.7
20260506174444 68 202 1.0 4.0 0.00 0.00 0.00 76 1012.7
20260506174343 68 202 1.0 4.0 0.00 0.00 0.00 76 1012.7
20260506174223 68 178 1.0 4.0 0.00 0.00 0.00 76 1012.7
20260506174044 68 171 1.0 4.0 0.00 0.00 0.00 76 1012.6
20260506173912 68 196 1.0 4.0 0.00 0.00 0.00 76 1012.7
20260506173850 68 191 1.0 4.0 0.00 0.00 0.00 76 1012.7
20260506173715 68 188 1.0 4.0 0.00 0.00 0.00 75 1012.6
20260506173552 68 173 1.0 4.0 0.00 0.00 0.00 75 1012.6
20260506173523 68 194 1.0 4.0 0.00 0.00 0.00 75 1012.6
20260506173418 68 213 1.0 4.0 0.00 0.00 0.00 75 1012.6
20260506173255 68 191 1.0 4.0 0.00 0.00 0.00 75 1012.6
20260506172923 69 192 1.0 4.0 0.00 0.00 0.00 75 1012.6
20260506172738 69 155 1.0 3.0 0.00 0.00 0.00 74 1012.6
20260506172548 69 196 1.0 3.0 0.00 0.00 0.00 74 1012.6
20260506172507 69 163 1.0 3.0 0.00 0.00 0.00 74 1012.5
20260506172410 69 157 1.0 4.0 0.00 0.00 0.00 74 1012.5
20260506172251 69 190 1.0 4.0 0.00 0.00 0.00 74 1012.5
20260506172057 69 187 2.0 4.0 0.00 0.00 0.00 74 1012.5
20260506172027 69 161 2.0 4.0 0.00 0.00 0.00 74 1012.5
20260506171831 69 187 2.0 4.0 0.00 0.00 0.00 73 1012.5
20260506171701 69 214 2.0 4.0 0.00 0.00 0.00 73 1012.4
20260506171302 69 176 2.0 5.0 0.00 0.00 0.00 73 1012.5
20260506171045 70 153 2.0 5.0 0.00 0.00 0.00 73 1012.5
20260506170927 70 197 2.0 5.0 0.00 0.00 0.00 73 1012.4
20260506170852 70 144 2.0 5.0 0.00 0.00 0.00 73 1012.4
20260506170720 70 207 2.0 5.0 0.00 0.00 0.00 73 1012.5
20260506170436 70 178 2.0 5.0 0.00 0.00 0.00 72 1012.5
20260506170410 70 169 2.0 5.0 0.00 0.00 0.00 72 1012.5
20260506170214 70 202 2.0 5.0 0.00 0.00 0.00 72 1012.5
20260506170005 70 214 2.0 4.0 0.00 0.00 0.00 72 1012.5
20260506165917 70 200 1.0 5.0 0.00 0.00 0.00 72 1012.5
20260506165836 70 155 1.0 5.0 0.00 0.00 0.00 72 1012.5
20260506165719 70 113 2.0 5.0 0.00 0.00 0.00 72 1012.5
20260506165526 71 169 2.0 6.0 0.00 0.00 0.00 71 1012.5
20260506165508 71 171 2.0 6.0 0.00 0.00 0.00 71 1012.5
20260506165346 71 186 2.0 6.0 0.00 0.00 0.00 71 1012.5
20260506165210 71 176 2.0 6.0 0.00 0.00 0.00 71 1012.5
20260506165129 71 236 2.0 6.0 0.00 0.00 0.00 71 1012.5
20260506165029 71 201 2.0 6.0 0.00 0.00 0.00 71 1012.5
20260506164824 71 154 2.0 6.0 0.00 0.00 0.00 71 1012.5
20260506164527 71 176 2.0 5.0 0.00 0.00 0.00 71 1012.5
20260506164518 71 164 2.0 5.0 0.00 0.00 0.00 71 1012.5
20260506164337 71 144 2.0 5.0 0.00 0.00 0.00 71 1012.4
20260506164215 71 171 2.0 5.0 0.00 0.00 0.00 70 1012.4
20260506163805 71 181 2.0 5.0 0.00 0.00 0.00 70 1012.5
20260506163618 71 209 3.0 7.0 0.00 0.00 0.00 70 1012.4
20260506163436 71 170 3.0 10.0 0.00 0.00 0.00 70 1012.5
20260506163427 71 205 3.0 10.0 0.00 0.00 0.00 70 1012.5
20260506163252 71 207 3.0 10.0 0.00 0.00 0.00 70 1012.5
20260506163110 71 194 4.0 10.0 0.00 0.00 0.00 70 1012.5
20260506163009 71 191 4.0 10.0 0.00 0.00 0.00 70 1012.5
20260506162852 71 159 4.0 10.0 0.00 0.00 0.00 70 1012.5
20260506162651 71 205 4.0 10.0 0.00 0.00 0.00 70 1012.6
20260506162448 71 172 4.0 9.0 0.00 0.00 0.00 69 1012.6
20260506162443 71 209 4.0 9.0 0.00 0.00 0.00 69 1012.6
20260506162227 72 198 4.0 9.0 0.00 0.00 0.00 69 1012.6
20260506162059 72 174 3.0 8.0 0.00 0.00 0.00 69 1012.6
20260506162017 72 155 3.0 8.0 0.00 0.00 0.00 69 1012.5
20260506161911 72 178 3.0 7.0 0.00 0.00 0.00 69 1012.5
20260506161714 72 159 3.0 8.0 0.00 0.00 0.00 69 1012.6
20260506161452 72 142 3.0 8.0 0.00 0.00 0.00 69 1012.5
20260506160955 72 210 3.0 8.0 0.00 0.00 0.00 69 1012.6
20260506160828 72 211 4.0 8.0 0.00 0.00 0.00 69 1012.5
20260506160726 72 204 4.0 9.0 0.00 0.00 0.00 69 1012.6
20260506160609 72 238 4.0 10.0 0.00 0.00 0.00 69 1012.5
20260506160432 72 221 4.0 10.0 0.00 0.00 0.00 69 1012.5
20260506160232 72 194 4.0 10.0 0.00 0.00 0.00 68 1012.6
20260506160224 72 224 4.0 10.0 0.00 0.00 0.00 68 1012.6
20260506160030 72 227 5.0 10.0 0.00 0.00 0.00 68 1012.5
20260506155837 72 198 5.0 10.0 0.00 0.00 0.00 67 1012.5
20260506155735 73 209 4.0 10.0 0.00 0.00 0.00 67 1012.5
20260506155615 73 222 4.0 10.0 0.00 0.00 0.00 67 1012.6
20260506155401 73 223 4.0 10.0 0.00 0.00 0.00 67 1012.5
20260506155157 73 214 4.0 10.0 0.00 0.00 0.00 67 1012.5
20260506155151 73 210 4.0 10.0 0.00 0.00 0.00 67 1012.5
20260506154947 73 203 4.0 10.0 0.00 0.00 0.00 66 1012.5
20260506154758 73 219 4.0 10.0 0.00 0.00 0.00 66 1012.5
20260506154331 73 191 4.0 10.0 0.00 0.00 0.00 66 1012.6
20260506154141 73 234 4.0 10.0 0.00 0.00 0.00 65 1012.6
20260506153950 73 178 3.0 8.0 0.00 0.00 0.00 65 1012.6
20260506153939 73 165 3.0 8.0 0.00 0.00 0.00 65 1012.6
20260506153714 74 223 3.0 10.0 0.00 0.00 0.00 65 1012.6
20260506153521 53 292 1.0 4.0 0.00 0.00 0.00 87 1013.8
20260506153509 74 186 4.0 10.0 0.00 0.00 0.00 65 1012.6
20260506153422 74 78 4.0 10.0 0.00 0.00 0.00 65 1012.6
20260506153312 74 208 4.0 10.0 0.00 0.00 0.00 64 1012.6
20260506153106 74 225 4.0 10.0 0.00 0.00 0.00 64 1012.6
20260506152919 74 140 4.0 10.0 0.00 0.00 0.00 64 1012.6
20260506152911 74 153 4.0 10.0 0.00 0.00 0.00 64 1012.6
20260506152716 74 157 4.0 10.0 0.00 0.00 0.00 63 1012.6
20260506152545 74 223 4.0 10.0 0.00 0.00 0.00 63 1012.6
20260506152505 74 210 4.0 10.0 0.00 0.00 0.00 63 1012.6
20260506152407 74 191 4.0 10.0 0.00 0.00 0.00 63 1012.6
20260506152243 74 182 4.0 10.0 0.00 0.00 0.00 63 1012.6
20260506151903 74 136 3.0 10.0 0.00 0.00 0.00 63 1012.6
20260506151701 74 224 3.0 8.0 0.00 0.00 0.00 63 1012.6
20260506151511 74 168 3.0 10.0 0.00 0.00 0.00 63 1012.6
20260506151429 74 199 4.0 10.0 0.00 0.00 0.00 64 1012.6
20260506151323 74 189 4.0 10.0 0.00 0.00 0.00 64 1012.6
20260506151204 74 156 5.0 10.0 0.00 0.00 0.00 64 1012.5
20260506151046 74 176 6.0 10.0 0.00 0.00 0.00 64 1012.5
20260506151031 74 281 6.0 10.0 0.00 0.00 0.00 64 1012.5
20260506150906 74 196 5.0 10.0 0.00 0.00 0.00 64 1012.6
20260506150733 74 157 5.0 10.0 0.00 0.00 0.00 63 1012.6
20260506150704 74 216 5.0 10.0 0.00 0.00 0.00 63 1012.6
20260506150559 75 214 4.0 11.0 0.00 0.00 0.00 63 1012.6
20260506150430 75 199 4.0 11.0 0.00 0.00 0.00 63 1012.6
20260506150052 75 272 4.0 11.0 0.00 0.00 0.00 63 1012.7
20260506145929 75 259 4.0 11.0 0.00 0.00 0.00 62 1012.6
20260506145804 75 190 4.0 11.0 0.00 0.00 0.00 62 1012.6
20260506145735 75 168 4.0 11.0 0.00 0.00 0.00 63 1012.6
20260506145640 75 217 4.0 9.0 0.00 0.00 0.00 62 1012.6
20260506145453 75 161 4.0 9.0 0.00 0.00 0.00 61 1012.6
20260506145309 75 138 4.0 8.0 0.00 0.00 0.00 62 1012.6
20260506145248 75 133 4.0 8.0 0.00 0.00 0.00 62 1012.6
20260506145124 75 165 4.0 8.0 0.00 0.00 0.00 62 1012.6
20260506144948 75 195 4.0 8.0 0.00 0.00 0.00 62 1012.7
20260506144553 75 157 5.0 8.0 0.00 0.00 0.00 62 1012.6
20260506144412 75 194 5.0 8.0 0.00 0.00 0.00 62 1012.6
20260506144007 75 207 4.0 8.0 0.00 0.00 0.00 61 1012.7
20260506143852 76 171 5.0 8.0 0.00 0.00 0.00 61 1012.7
20260506143728 76 247 5.0 9.0 0.00 0.00 0.00 62 1012.7
20260506143646 76 211 5.0 9.0 0.00 0.00 0.00 62 1012.7
20260506143534 76 252 5.0 11.0 0.00 0.00 0.00 61 1012.7
20260506143352 76 196 5.0 11.0 0.00 0.00 0.00 61 1012.7
20260506143252 76 206 5.0 11.0 0.00 0.00 0.00 61 1012.7
20260506143227 76 232 5.0 11.0 0.00 0.00 0.00 60 1012.7
20260506143049 76 164 5.0 11.0 0.00 0.00 0.00 60 1012.8
20260506142917 76 231 4.0 11.0 0.00 0.00 0.00 59 1012.8
20260506142902 76 173 4.0 11.0 0.00 0.00 0.00 59 1012.8
20260506142747 76 180 4.0 10.0 0.00 0.00 0.00 61 1012.8
20260506142612 76 195 4.0 10.0 0.00 0.00 0.00 60 1012.6
20260506142138 76 267 4.0 10.0 0.00 0.00 0.00 60 1012.7
20260506142018 76 206 5.0 10.0 0.00 0.00 0.00 60 1012.7
20260506141846 76 146 4.0 10.0 0.00 0.00 0.00 60 1012.8
20260506141820 76 196 4.0 10.0 0.00 0.00 0.00 60 1012.8
20260506141649 76 165 5.0 10.0 0.00 0.00 0.00 60 1012.7
20260506141521 76 171 5.0 10.0 0.00 0.00 0.00 59 1012.8
20260506141425 76 156 5.0 10.0 0.00 0.00 0.00 60 1012.8
20260506141325 76 203 5.0 10.0 0.00 0.00 0.00 60 1012.8
20260506141133 76 198 5.0 9.0 0.00 0.00 0.00 60 1012.8
20260506140959 76 195 5.0 11.0 0.00 0.00 0.00 60 1012.8
20260506140553 76 206 5.0 13.0 0.00 0.00 0.00 60 1012.8
20260506140422 76 210 6.0 13.0 0.00 0.00 0.00 60 1012.8
20260506135943 76 146 6.0 13.0 0.00 0.00 0.00 61 1012.8
20260506135802 76 197 6.0 13.0 0.00 0.00 0.00 60 1012.8
20260506135622 77 219 6.0 14.0 0.00 0.00 0.00 60 1012.8
20260506135250 54 333 1.0 4.0 0.00 0.00 0.00 86 1013.7
20260506135205 77 167 6.0 14.0 0.00 0.00 0.00 60 1012.8
20260506135006 77 219 6.0 14.0 0.00 0.00 0.00 60 1012.8
20260506134858 77 135 6.0 14.0 0.00 0.00 0.00 59 1012.8
20260506134815 77 192 6.0 14.0 0.00 0.00 0.00 59 1012.8
20260506134620 77 180 6.0 14.0 0.00 0.00 0.00 58 1012.8
20260506134542 55 311 2.0 4.0 0.00 0.00 0.00 85 1013.4
20260506134419 78 182 5.0 13.0 0.00 0.00 0.00 58 1012.8
20260506134402 78 207 5.0 13.0 0.00 0.00 0.00 58 1012.8
20260506134239 78 168 5.0 13.0 0.00 0.00 0.00 57 1012.8
20260506134054 78 168 5.0 13.0 0.00 0.00 0.00 57 1012.8
20260506133945 78 154 5.0 13.0 0.00 0.00 0.00 56 1012.8
20260506133853 78 163 5.0 13.0 0.00 0.00 0.00 56 1012.8
20260506133719 78 168 4.0 10.0 0.00 0.00 0.00 56 1012.8
20260506133400 78 146 4.0 10.0 0.00 0.00 0.00 57 1012.8
20260506133347 78 175 4.0 10.0 0.00 0.00 0.00 57 1012.8
20260506133203 78 168 4.0 10.0 0.00 0.00 0.00 56 1012.7
20260506133034 78 155 4.0 11.0 0.00 0.00 0.00 57 1012.8
20260506132944 78 172 5.0 11.0 0.00 0.00 0.00 58 1012.8
20260506132849 78 210 5.0 11.0 0.00 0.00 0.00 58 1012.8
20260506132605 78 209 5.0 11.0 0.00 0.00 0.00 58 1012.7
20260506132411 78 229 5.0 11.0 0.00 0.00 0.00 57 1012.8
20260506132349 78 219 5.0 11.0 0.00 0.00 0.00 57 1012.8
20260506132217 78 157 5.0 11.0 0.00 0.00 0.00 57 1012.8
20260506132009 78 130 5.0 10.0 0.00 0.00 0.00 57 1012.8
20260506131900 78 173 5.0 10.0 0.00 0.00 0.00 56 1012.8
20260506131829 79 151 5.0 10.0 0.00 0.00 0.00 56 1012.9
20260506131652 79 163 5.0 10.0 0.00 0.00 0.00 56 1012.9
20260506131517 79 117 4.0 10.0 0.00 0.00 0.00 55 1012.9
20260506131504 79 173 4.0 10.0 0.00 0.00 0.00 55 1012.9
20260506131327 79 200 4.0 10.0 0.00 0.00 0.00 56 1013.0
20260506131136 79 119 4.0 9.0 0.00 0.00 0.00 56 1013.0
20260506131033 79 165 4.0 9.0 0.00 0.00 0.00 56 1012.9
20260506131004 79 232 4.0 10.0 0.00 0.00 0.00 55 1012.9
20260506130827 79 176 4.0 10.0 0.00 0.00 0.00 55 1013.1
20260506130654 78 141 4.0 10.0 0.00 0.00 0.00 57 1013.0
20260506130240 78 187 4.0 10.0 0.00 0.00 0.00 57 1013.0
20260506130036 78 154 5.0 10.0 0.00 0.00 0.00 56 1013.1
20260506125936 78 180 5.0 10.0 0.00 0.00 0.00 56 1013.1
20260506125837 78 219 5.0 10.0 0.00 0.00 0.00 55 1013.1
20260506125651 78 168 5.0 11.0 0.00 0.00 0.00 56 1013.1
20260506125511 78 194 5.0 11.0 0.00 0.00 0.00 55 1013.1
20260506125457 78 148 5.0 11.0 0.00 0.00 0.00 55 1013.1
20260506125319 78 99 5.0 11.0 0.00 0.00 0.00 55 1013.1
20260506125116 79 168 5.0 11.0 0.00 0.00 0.00 54 1013.1
20260506125026 79 207 5.0 11.0 0.00 0.00 0.00 54 1013.1
20260506124950 79 203 5.0 11.0 0.00 0.00 0.00 54 1013.1
20260506124814 79 177 5.0 11.0 0.00 0.00 0.00 54 1013.2
20260506124620 79 203 5.0 11.0 0.00 0.00 0.00 54 1013.2
20260506124225 79 180 5.0 11.0 0.00 0.00 0.00 54 1013.2
20260506124019 79 173 5.0 11.0 0.00 0.00 0.00 53 1013.1
20260506123919 79 155 5.0 11.0 0.00 0.00 0.00 52 1013.1
20260506123840 79 138 4.0 11.0 0.00 0.00 0.00 53 1013.1
20260506123714 79 196 4.0 10.0 0.00 0.00 0.00 52 1013.2
20260506123536 79 183 4.0 10.0 0.00 0.00 0.00 52 1013.2
20260506123521 79 232 4.0 11.0 0.00 0.00 0.00 52 1013.2
20260506123412 79 130 5.0 11.0 0.00 0.00 0.00 52 1013.2
20260506123201 79 180 5.0 12.0 0.00 0.00 0.00 53 1013.2
20260506123056 79 141 5.0 12.0 0.00 0.00 0.00 53 1013.2
20260506123022 79 173 5.0 12.0 0.00 0.00 0.00 53 1013.2
20260506122837 79 183 5.0 12.0 0.00 0.00 0.00 53 1013.2
20260506122645 79 151 5.0 12.0 0.00 0.00 0.00 54 1013.1
20260506122633 79 159 5.0 12.0 0.00 0.00 0.00 54 1013.1
20260506122508 79 202 5.0 12.0 0.00 0.00 0.00 54 1013.2
20260506122338 79 180 5.0 10.0 0.00 0.00 0.00 54 1013.2
20260506122252 79 196 5.0 10.0 0.00 0.00 0.00 55 1013.2
20260506122156 79 259 5.0 10.0 0.00 0.00 0.00 55 1013.2
20260506122004 79 177 5.0 10.0 0.00 0.00 0.00 55 1013.2
20260506121734 79 171 5.0 16.0 0.00 0.00 0.00 54 1013.3
20260506121709 79 156 5.0 16.0 0.00 0.00 0.00 54 1013.3
20260506121517 79 184 5.0 16.0 0.00 0.00 0.00 53 1013.3
20260506121336 79 221 5.0 16.0 0.00 0.00 0.00 53 1013.3
20260506121247 79 169 5.0 16.0 0.00 0.00 0.00 53 1013.3
20260506121145 79 130 5.0 16.0 0.00 0.00 0.00 53 1013.3
20260506120901 79 231 5.0 16.0 0.00 0.00 0.00 52 1013.3
20260506120648 79 150 5.0 10.0 0.00 0.00 0.00 52 1013.3
20260506120642 79 113 5.0 10.0 0.00 0.00 0.00 52 1013.3
20260506120506 80 155 5.0 10.0 0.00 0.00 0.00 52 1013.4
20260506120235 80 157 5.0 11.0 0.00 0.00 0.00 52 1013.3
20260506120137 80 199 5.0 11.0 0.00 0.00 0.00 52 1013.4
20260506120019 80 200 4.0 11.0 0.00 0.00 0.00 52 1013.4
20260506115712 80 100 5.0 11.0 0.00 0.00 0.00 51 1013.3
20260506115530 80 122 5.0 11.0 0.00 0.00 0.00 51 1013.3
20260506115510 80 111 5.0 11.0 0.00 0.00 0.00 51 1013.4
20260506115240 80 198 5.0 11.0 0.00 0.00 0.00 50 1013.4
20260506115031 80 202 4.0 10.0 0.00 0.00 0.00 50 1013.4
20260506114934 80 117 4.0 10.0 0.00 0.00 0.00 50 1013.4
20260506114846 80 214 4.0 10.0 0.00 0.00 0.00 51 1013.4
20260506114657 80 184 4.0 10.0 0.00 0.00 0.00 51 1013.5
20260506114503 80 178 4.0 10.0 0.00 0.00 0.00 50 1013.5
20260506114433 80 212 4.0 10.0 0.00 0.00 0.00 50 1013.5
20260506114304 80 165 4.0 10.0 0.00 0.00 0.00 49 1013.5
20260506114126 80 19 4.0 10.0 0.00 0.00 0.00 49 1013.5
20260506114037 80 194 4.0 10.0 0.00 0.00 0.00 49 1013.5
20260506113927 80 146 4.0 10.0 0.00 0.00 0.00 49 1013.5
20260506113703 80 188 4.0 10.0 0.00 0.00 0.00 48 1013.5
20260506113435 80 130 4.0 10.0 0.00 0.00 0.00 49 1013.5
20260506113425 80 139 4.0 10.0 0.00 0.00 0.00 49 1013.5
20260506113125 80 117 3.0 10.0 0.00 0.00 0.00 50 1013.5